TimeEDT,TemperatureF,Dew PointF,Humidity,Sea Level PressureIn,VisibilityMPH,Wind Direction,Wind SpeedMPH,Gust SpeedMPH,PrecipitationIn,Events,Conditions,WindDirDegrees,DateUTC
12:12 AM,37.4,32.0,81,30.61,10.0,ESE,4.6,-,N/A,,Clear,110,2013-04-22 04:12:00
12:33 AM,35.6,32.0,87,30.61,10.0,East,4.6,-,N/A,,Clear,100,2013-04-22 04:33:00
12:54 AM,35.6,32.0,87,30.60,10.0,Calm,Calm,-,N/A,,Clear,0,2013-04-22 04:54:00
1:12 AM,35.6,32.0,87,30.60,10.0,NE,3.5,-,N/A,,Clear,40,2013-04-22 05:12:00
1:33 AM,35.6,32.0,87,30.59,10.0,Calm,Calm,-,N/A,,Clear,0,2013-04-22 05:33:00
1:54 AM,35.6,32.0,87,30.59,10.0,Calm,Calm,-,N/A,,Clear,0,2013-04-22 05:54:00
2:12 AM,33.8,32.0,93,30.58,10.0,Calm,Calm,-,N/A,,Clear,0,2013-04-22 06:12:00
2:33 AM,33.8,32.0,93,30.59,10.0,Calm,Calm,-,N/A,,Clear,0,2013-04-22 06:33:00
2:54 AM,33.8,32.0,93,30.59,10.0,Calm,Calm,-,N/A,,Clear,0,2013-04-22 06:54:00
3:12 AM,32.0,32.0,100,30.59,10.0,Calm,Calm,-,N/A,,Clear,0,2013-04-22 07:12:00
3:33 AM,32.0,32.0,100,30.59,10.0,Calm,Calm,-,N/A,,Clear,0,2013-04-22 07:33:00
3:54 AM,32.0,32.0,100,30.58,10.0,Calm,Calm,-,N/A,,Clear,0,2013-04-22 07:54:00
4:12 AM,32.0,30.2,93,30.57,10.0,Calm,Calm,-,N/A,,Clear,0,2013-04-22 08:12:00
4:33 AM,32.0,30.2,93,30.57,10.0,Calm,Calm,-,N/A,,Clear,0,2013-04-22 08:33:00
5:12 AM,32.0,30.2,93,30.57,10.0,Calm,Calm,-,N/A,,Clear,0,2013-04-22 09:12:00
5:33 AM,32.0,30.2,93,30.57,10.0,Calm,Calm,-,N/A,,Clear,0,2013-04-22 09:33:00
5:54 AM,32.0,30.2,93,30.57,10.0,Calm,Calm,-,N/A,,Clear,0,2013-04-22 09:54:00
6:15 AM,30.2,30.2,100,30.57,7.0,Calm,Calm,-,N/A,,Clear,0,2013-04-22 10:15:00
6:33 AM,32.0,30.2,93,30.58,7.0,Calm,Calm,-,N/A,,Clear,0,2013-04-22 10:33:00
6:54 AM,32.0,30.2,93,30.58,7.0,Calm,Calm,-,N/A,,Clear,0,2013-04-22 10:54:00
7:15 AM,32.0,32.0,100,30.58,10.0,Calm,Calm,-,N/A,,Clear,0,2013-04-22 11:15:00
7:33 AM,33.8,32.0,93,30.58,10.0,Calm,Calm,-,N/A,,Clear,0,2013-04-22 11:33:00
7:54 AM,39.2,35.6,87,30.59,10.0,East,5.8,-,N/A,,Clear,80,2013-04-22 11:54:00
8:15 AM,42.8,35.6,76,30.59,10.0,ENE,9.2,-,N/A,,Scattered Clouds,70,2013-04-22 12:15:00
8:33 AM,42.8,35.6,76,30.58,10.0,East,9.2,17.3,N/A,,Mostly Cloudy,80,2013-04-22 12:33:00
8:54 AM,44.6,35.6,71,30.58,10.0,ENE,9.2,19.6,N/A,,Overcast,70,2013-04-22 12:54:00
9:15 AM,44.6,33.8,66,30.58,10.0,East,16.1,23.0,N/A,,Overcast,90,2013-04-22 13:15:00
9:33 AM,44.6,33.8,66,30.58,10.0,ENE,10.4,-,N/A,,Overcast,70,2013-04-22 13:33:00
9:54 AM,46.4,33.8,62,30.58,10.0,East,10.4,-,N/A,,Mostly Cloudy,90,2013-04-22 13:54:00
10:15 AM,48.2,33.8,58,30.58,10.0,East,13.8,18.4,N/A,,Mostly Cloudy,100,2013-04-22 14:15:00
10:33 AM,48.2,33.8,58,30.58,10.0,NE,11.5,17.3,N/A,,Mostly Cloudy,50,2013-04-22 14:33:00
10:54 AM,46.4,32.0,57,30.58,10.0,East,11.5,17.3,N/A,,Mostly Cloudy,80,2013-04-22 14:54:00
11:15 AM,50.0,33.8,54,30.58,10.0,East,15.0,20.7,N/A,,Mostly Cloudy,90,2013-04-22 15:15:00
11:33 AM,48.2,33.8,58,30.57,10.0,East,13.8,17.3,N/A,,Overcast,80,2013-04-22 15:33:00
11:54 AM,50.0,33.8,54,30.56,10.0,ENE,8.1,-,N/A,,Overcast,70,2013-04-22 15:54:00
12:15 PM,50.0,33.8,54,30.55,10.0,East,9.2,-,N/A,,Overcast,90,2013-04-22 16:15:00
12:33 PM,50.0,33.8,54,30.55,10.0,ENE,8.1,-,N/A,,Overcast,60,2013-04-22 16:33:00
12:54 PM,51.8,32.0,47,30.55,10.0,East,15.0,19.6,N/A,,Mostly Cloudy,100,2013-04-22 16:54:00
1:15 PM,51.8,32.0,47,30.53,10.0,East,12.7,19.6,N/A,,Overcast,90,2013-04-22 17:15:00
1:33 PM,51.8,32.0,47,30.52,10.0,NE,8.1,16.1,N/A,,Overcast,50,2013-04-22 17:33:00
1:54 PM,51.8,33.8,50,30.52,10.0,ENE,8.1,-,N/A,,Overcast,60,2013-04-22 17:54:00
2:15 PM,51.8,33.8,50,30.51,10.0,East,12.7,18.4,N/A,,Overcast,80,2013-04-22 18:15:00
2:36 PM,53.6,33.8,47,30.50,10.0,ENE,9.2,-,N/A,,Overcast,70,2013-04-22 18:36:00
2:54 PM,51.8,33.8,50,30.50,10.0,East,13.8,-,N/A,,Overcast,100,2013-04-22 18:54:00
3:15 PM,53.6,32.0,44,30.48,10.0,East,9.2,-,N/A,,Overcast,80,2013-04-22 19:15:00
3:36 PM,53.6,33.8,47,30.47,10.0,ENE,9.2,17.3,N/A,,Overcast,60,2013-04-22 19:36:00
3:54 PM,51.8,32.0,47,30.47,10.0,East,12.7,16.1,N/A,,Overcast,100,2013-04-22 19:54:00
4:15 PM,53.6,33.8,47,30.46,10.0,East,10.4,17.3,N/A,,Overcast,90,2013-04-22 20:15:00
4:36 PM,53.6,33.8,47,30.45,10.0,East,10.4,17.3,N/A,,Overcast,80,2013-04-22 20:36:00
4:54 PM,53.6,33.8,47,30.45,10.0,ENE,8.1,-,N/A,,Overcast,70,2013-04-22 20:54:00
5:15 PM,53.6,33.8,47,30.45,10.0,ENE,8.1,18.4,N/A,,Overcast,60,2013-04-22 21:15:00
5:36 PM,51.8,33.8,50,30.45,10.0,East,9.2,-,N/A,,Overcast,80,2013-04-22 21:36:00
5:54 PM,51.8,32.0,47,30.45,10.0,East,11.5,17.3,N/A,,Mostly Cloudy,90,2013-04-22 21:54:00
6:15 PM,51.8,32.0,47,30.44,10.0,ENE,9.2,17.3,N/A,,Mostly Cloudy,60,2013-04-22 22:15:00
6:36 PM,51.8,33.8,50,30.44,10.0,ENE,11.5,16.1,N/A,,Mostly Cloudy,60,2013-04-22 22:36:00
6:54 PM,50.0,32.0,50,30.44,10.0,East,11.5,-,N/A,,Mostly Cloudy,80,2013-04-22 22:54:00
7:15 PM,50.0,33.8,54,30.44,10.0,East,8.1,-,N/A,,Mostly Cloudy,80,2013-04-22 23:15:00
7:36 PM,50.0,33.8,54,30.44,10.0,ENE,8.1,-,N/A,,Overcast,70,2013-04-22 23:36:00
7:54 PM,50.0,33.8,54,30.44,10.0,ENE,6.9,-,N/A,,Overcast,60,2013-04-22 23:54:00
8:15 PM,50.0,33.8,54,30.45,10.0,East,9.2,-,N/A,,Overcast,80,2013-04-23 00:15:00
8:36 PM,50.0,32.0,50,30.45,10.0,East,11.5,-,N/A,,Overcast,90,2013-04-23 00:36:00
8:54 PM,50.0,32.0,50,30.45,10.0,East,11.5,-,N/A,,Overcast,80,2013-04-23 00:54:00
9:15 PM,46.4,32.0,57,30.46,10.0,East,9.2,-,N/A,,Mostly Cloudy,80,2013-04-23 01:15:00
9:36 PM,46.4,32.0,57,30.46,10.0,ENE,5.8,-,N/A,,Mostly Cloudy,70,2013-04-23 01:36:00
9:54 PM,46.4,33.8,62,30.46,10.0,East,8.1,-,N/A,,Overcast,80,2013-04-23 01:54:00
10:15 PM,46.4,33.8,62,30.46,10.0,East,9.2,-,N/A,,Overcast,80,2013-04-23 02:15:00
10:36 PM,46.4,33.8,62,30.45,10.0,ENE,5.8,-,N/A,,Overcast,70,2013-04-23 02:36:00
10:57 PM,46.4,33.8,62,30.45,10.0,East,11.5,-,N/A,,Overcast,90,2013-04-23 02:57:00
11:15 PM,46.4,33.8,62,30.45,10.0,East,10.4,-,N/A,,Overcast,90,2013-04-23 03:15:00
11:36 PM,46.4,35.6,66,30.44,10.0,East,9.2,-,N/A,,Overcast,80,2013-04-23 03:36:00
11:57 PM,46.4,35.6,66,30.44,10.0,East,9.2,-,N/A,,Overcast,80,2013-04-23 03:57:00